Погода в Шуе

Россия / Ивановская область     56°51′07″N   41°23′08″E
темп.,
°C
ветер,
м/с
пор.,
м/с
влажн.,
%
обл.,
%
осадки,
мм/ч
давл.,
гПа
погр.,
м
9 марта, вт
вт900:00−14сз379678 0.0 1007193
03:00−16ссз379679 0.1 1009163
06:00−18ссз379794 0.1 1011202
09:00−18ссз369591 0.1 1013246
12:00−15ссз3590100 0.0 1014392
15:00−13ссз4688100 0.1 1015515
18:00−16ссз4993100 0.1 1017456
21:00−17с4994100 0.1 1020402
10 марта, ср
ср1000:00−20с4896100 0.1 1021289
03:00−22ссз389794 0.1 1022222
06:00−26с389681 0.0 1024206
09:00−24с379340 0.0 1026263
12:00−19ссз368618 0.0 1027404
15:00−15сз468110 0.0 1027561
18:00−17сз259221 0.0 1027102
21:00−20сз389653 0.0 1028193
11 марта, чт
чт1100:00−21сз259994 0.0 102995
03:00−22сз239983 0.0 103056
06:00−23сз23982 0.0 103158
09:00−18сз36931 0.0 1031232
12:00−12сз358838 0.0 1031367
15:00−8зсз348328 0.0 1030509
18:00−12з239373 0.0 103024
21:00−16з239644 0.0 103121
12 марта, пт
пт1200:00−17зюз23970 0.0 103223
03:00−18зюз23970 0.0 103160
06:00−19юз23970 0.0 103283
09:00−14юз38870 0.0 1032274
12:00−9юз487610 0.0 1031548
15:00−7юз48759 0.0 1030749
18:00−11ююз38870 0.0 1029185
21:00−13ююз412860 0.0 1029372
13 марта, сб
сб1300:00−15ююз411880 0.0 1029334
03:00−16ю411900 0.0 1028312
06:00−17ю412870 0.0 1027321
09:00−12ю513780 0.0 1025472
12:00−7ю612770 0.0 1023801
15:00−7ю6129147 0.5 1021931
18:00−6ю61291100 0.6 1019845
21:00−6ююз51294100 1.0 1019632